SCP
0 0 0 0 0 0 0 0 0 0 0 0 1 1 0 0 0 0 0 0 1 0 0 0 0 0 0 0 0 0 0 0 0 0 0 0 0 0 0 0 0 0 0
0 0 0 0 0 0 0 0 0 0 0 0 0 0 1 1 1 0 0 0 0 0 0 1 1 1 1 1 0 0 0 0 0 0 0 0 0 0 1 0 0 0 0
0 0 0 0 0 0 0 0 0 0 0 0 0 0 0 1 1 1 0 0 0 0 1 1 1 1 1 1 1 1 0 1 1 1 0 0 1 1 1 1 0 0 0
0 0 0 0 0 0 0 0 0 0 0 0 0 0 0 0 0 1 0 0 0 0 1 1 1 1 1 1 1 1 1 1 1 1 1 1 1 1 1 1 1 1 0
0 0 0 0 0 0 0 0 0 0 0 0 0 0 0 0 0 0 0 0 1 1 0 1 1 1 1 1 1 1 1 1 1 1 1 1 1 1 1 1 1 1 1
0 0 0 0 0 0 0 0 0 0 0 0 0 0 0 0 0 0 0 0 0 0 0 0 1 1 1 1 1 1 1 1 1 1 1 1 1 1 1 1 1 1 1
0 0 0 0 0 0 0 0 0 0 0 0 0 0 0 0 0 0 0 0 0 0 0 0 0 1 1 1 1 1 1 1 1 1 1 1 1 1 1 1 1 1 1
0 0 0 0 0 0 0 0 0 0 0 0 0 0 0 0 0 0 0 0 0 0 0 0 0 0 1 1 1 1 1 1 1 1 1 1 1 1 1 1 1 1 1
0 0 0 0 0 0 0 0 0 0 0 0 0 0 0 0 0 0 0 0 0 0 0 0 0 0 0 1 1 1 1 1 1 1 1 1 1 1 1 1 1 1 1
0 0 0 0 0 0 0 0 0 0 0 0 0 0 0 0 0 0 0 0 0 0 0 0 0 0 0 0 1 1 1 1 1 1 1 1 2 1 1 1 1 1 1
0 0 0 0 0 0 0 0 0 0 0 0 0 0 0 0 0 0 0 0 0 0 0 0 0 0 0 0 0 1 1 1 1 1 1 1 2 2 1 1 1 1 1
0 0 0 0 0 0 0 0 0 0 0 0 0 0 0 0 0 0 0 0 0 0 0 0 0 0 0 0 0 0 0 0 0 1 1 1 1 1 1 1 1 1 1
0 0 0 0 0 0 0 0 0 0 0 0 0 0 0 0 0 0 0 0 0 0 0 0 0 0 0 0 0 0 0 0 0 0 1 1 1 1 1 1 1 1 1
0 0 0 0 0 0 0 0 0 0 0 0 0 0 0 0 0 0 0 0 0 0 0 0 0 0 0 0 0 0 0 0 0 0 0 0 0 0 1 1 1 1 1
0 0 0 0 0 0 0 0 0 0 0 0 0 0 0 0 0 0 0 0 0 0 0 0 0 0 0 0 0 0 0 0 0 0 0 0 0 0 1 1 1 1 1
0 0 0 0 0 0 0 0 0 0 0 0 0 0 0 0 0 0 0 0 0 0 0 0 0 0 0 0 0 0 0 0 0 0 0 0 0 0 0 0 0 0 0
0 0 0 0 0 0 0 0 0 0 0 0 0 0 0 0 0 0 0 0 0 0 0 0 0 0 0 0 0 0 0 0 0 0 0 0 0 0 0 0 0 0 0
0 0 0 0 0 0 0 0 0 0 0 0 0 0 0 0 0 0 0 0 0 0 0 0 0 0 0 0 0 0 0 0 0 0 0 0 0 0 0 0 0 0 0
0 0 0 0 0 0 0 0 0 0 0 0 0 0 0 0 0 0 0 0 0 0 0 0 0 0 0 0 0 0 0 0 0 0 0 0 0 0 0 0 0 0 0
0 0 0 0 0 0 0 0 0 0 0 0 0 0 0 0 0 0 0 0 0 0 0 0 0 0 0 0 0 0 0 0 0 0 0 0 0 0 0 0 0 0 0
0 0 0 0 0 0 0 0 0 0 0 0 0 0 0 0 0 0 0 0 0 0 0 0 0 0 0 0 0 0 0 0 0 0 0 0 0 0 0 0 0 0 0
0 0 0 0 0 0 0 0 0 0 0 0 0 0 0 0 0 0 0 0 0 0 0 0 0 0 0 0 0 0 0 0 0 0 0 0 0 0 0 0 0 0 0
0 0 0 0 0 0 0 0 0 0 0 0 0 0 0 0 0 0 0 0 0 0 0 0 0 0 0 0 0 0 0 0 0 0 0 0 0 0 0 0 0 0 0
0 0 0 0 0 0 0 0 0 0 0 0 0 0 0 0 0 0 0 0 0 0 0 0 0 0 0 0 0 0 0 0 0 0 0 0 0 0 0 0 0 0 0
1 0 0 0 0 0 0 0 0 0 0 0 0 0 0 0 0 0 0 0 0 0 0 0 0 0 0 0 0 0 0 0 0 0 0 0 0 0 0 0 0 0 0
1 1 0 0 0 0 0 0 0 0 0 0 0 0 0 0 0 0 0 0 0 0 0 0 0 0 0 0 0 0 0 0 0 0 0 0 0 0 0 0 0 0 0
Wind_Speed
3 3 2 2 2 2 2 1 1 1 1 0 2 3 4 4 4 3 3 10 11 11 12 12 12 12 12 12 12 11 11 11 10 9 10 10 11 11 11 11 11 10 10
4 3 2 2 1 2 2 2 2 1 1 1 1 2 3 3 4 4 3 5 10 11 11 12 12 12 11 11 12 12 12 12 11 10 10 10 10 10 11 11 11 11 10
4 4 3 2 1 2 2 2 1 1 1 1 1 1 2 3 4 4 4 3 4 8 11 11 12 12 11 11 12 12 12 12 11 11 11 10 10 10 10 10 11 10 10
5 4 3 2 2 2 2 2 2 2 1 1 0 1 1 2 4 4 4 3 3 3 7 11 11 11 11 11 12 12 12 12 12 12 12 12 11 11 11 11 11 11 10
5 4 3 2 3 3 2 2 2 1 1 0 1 1 1 2 3 4 4 4 4 3 3 6 9 10 11 11 11 12 12 12 13 13 13 13 13 12 12 12 11 11 11
5 4 3 3 4 3 2 2 2 2 1 0 1 1 1 1 1 2 3 3 3 4 3 3 3 5 9 9 10 10 11 12 12 13 14 14 14 13 12 12 12 12 12
5 5 4 3 3 3 2 2 2 3 2 1 2 3 3 2 0 1 1 2 2 3 3 3 2 2 3 7 8 9 10 10 10 11 12 13 13 13 14 14 13 13 13
5 5 5 3 3 3 4 3 3 2 2 2 2 2 3 4 3 2 0 1 1 1 2 3 3 3 2 2 4 8 8 8 9 10 11 12 13 13 14 15 15 14 14
5 5 5 4 4 3 3 3 3 3 2 2 2 3 3 1 2 3 2 1 1 1 1 1 3 3 3 3 2 5 7 6 7 8 9 10 11 12 13 15 15 15 15
5 5 5 5 4 3 3 3 3 3 3 2 2 2 2 3 2 1 3 3 2 1 2 2 2 3 3 2 3 5 6 6 6 7 7 8 9 10 11 14 16 16 16
4 5 5 5 4 3 4 4 4 3 3 2 2 2 3 3 2 3 1 3 3 3 2 2 2 2 2 2 2 4 6 6 6 7 7 7 9 9 10 12 14 16 17
2 4 5 5 4 3 3 4 4 4 3 3 2 2 2 2 1 2 1 1 2 3 3 2 2 1 2 2 4 5 6 6 6 7 7 8 8 9 10 11 12 14 15
2 3 5 4 4 3 3 3 3 3 3 3 2 2 2 1 1 2 2 0 1 3 3 3 2 2 1 1 2 5 5 6 7 7 8 8 9 9 9 11 12 13 14
4 5 5 5 4 4 4 3 3 2 2 3 3 2 2 1 1 2 2 2 1 3 3 3 3 2 2 1 2 4 3 6 7 8 9 9 9 10 10 10 11 12 12
5 6 5 5 4 4 4 4 2 2 2 2 2 2 2 1 1 1 2 2 3 0 2 3 3 3 2 2 3 2 3 6 8 9 10 10 10 10 11 11 11 11 11
5 6 5 5 5 4 4 4 2 2 3 2 1 2 1 0 1 1 1 1 2 3 2 3 3 3 3 3 4 3 4 7 9 10 10 11 11 12 12 12 12 12 12
6 6 6 5 5 4 4 4 3 3 3 1 1 2 1 1 1 1 1 1 1 2 2 3 2 3 3 4 4 4 4 4 4 9 10 11 12 12 12 12 12 12 12
6 6 6 5 5 5 4 4 4 3 3 3 2 2 2 1 1 0 0 0 1 1 2 3 3 3 3 4 4 4 4 3 3 7 8 8 9 10 10 11 12 12 13
6 6 6 6 5 5 5 4 4 4 4 4 4 4 3 3 2 2 2 2 1 1 1 2 3 2 3 3 3 4 4 3 4 5 6 6 7 8 9 10 11 12 13
7 6 6 6 5 5 5 5 4 4 4 4 4 4 4 4 4 4 3 3 2 1 1 1 2 3 3 3 2 2 4 3 4 5 5 5 6 8 9 11 12 12 13
8 7 6 5 5 5 5 5 5 5 4 4 4 4 4 6 7 6 4 4 3 2 2 2 3 3 3 3 3 2 3 4 4 3 3 4 4 4 6 8 10 13 14
6 6 6 6 6 5 7 9 7 4 4 4 4 4 4 5 7 8 9 8 7 5 4 3 3 4 5 4 4 3 3 3 4 3 2 5 3 5 6 5 10 13 14
7 6 7 7 6 7 10 10 10 5 5 5 5 4 4 4 5 4 6 7 8 10 10 6 6 7 6 5 4 4 4 5 6 5 2 5 4 6 6 7 12 14 14
7 7 7 7 6 8 12 12 11 6 4 5 5 6 5 6 5 5 4 5 6 7 8 7 7 9 8 7 6 6 6 5 6 5 3 5 5 6 7 6 11 14 14
7 7 6 7 7 8 12 13 10 4 4 6 6 5 6 6 8 8 5 5 7 7 9 11 12 12 13 13 9 4 4 3 5 6 4 4 5 5 5 6 9 12 12
8 7 7 7 8 7 10 13 12 4 5 5 4 5 7 8 9 8 6 6 7 9 7 6 7 9 9 10 11 8 7 6 5 5 4 4 4 3 4 5 5 5 6
Wind_Direction
144 142 145 154 164 155 158 161 161 159 166 149 138 144 155 164 166 171 191 191 188 186 185 185 185 186 185 184 184 183 181 179 178 177 175 173 171 169 167 166 164 161 159
139 137 141 147 159 162 151 147 159 149 146 151 145 144 153 163 172 177 195 200 200 195 192 192 193 194 194 194 193 192 190 188 185 184 183 180 178 177 176 174 172 171 168
135 135 131 129 144 139 125 107 104 92 96 103 129 151 154 171 179 185 194 203 207 207 203 199 197 198 200 202 201 200 198 195 191 191 189 186 183 183 183 181 178 176 174
131 123 117 116 115 102 105 104 85 82 61 64 358 242 182 185 188 188 194 204 204 206 213 211 208 205 207 208 208 207 205 202 199 198 196 194 191 190 189 187 185 182 181
124 115 111 109 103 89 85 94 87 104 86 21 269 240 210 199 194 189 190 198 199 200 205 217 217 214 215 216 215 214 211 209 207 205 204 203 201 197 196 193 190 188 188
119 113 108 101 96 88 73 68 73 68 91 21 356 11 334 233 196 194 195 194 192 199 204 208 212 223 222 220 220 219 217 215 213 211 211 211 209 206 203 200 197 196 195
117 110 106 96 93 93 87 76 74 56 31 40 58 15 356 356 303 221 200 192 202 202 193 199 201 207 222 221 221 220 220 220 219 218 217 216 215 212 210 207 205 202 201
122 116 113 107 99 92 74 60 69 70 25 41 101 82 21 359 350 360 313 203 216 206 201 205 202 206 212 209 215 218 220 221 223 222 220 218 218 215 215 213 210 207 206
118 115 116 111 102 101 97 78 77 91 62 17 63 125 126 195 320 341 352 4 309 245 244 225 210 210 209 207 218 223 219 219 225 228 226 223 220 219 220 219 216 212 210
123 123 118 113 110 105 103 90 82 90 93 48 15 40 112 151 133 1 338 343 346 332 276 250 228 216 207 200 213 216 216 220 227 231 232 233 230 226 227 227 226 222 217
123 127 123 117 116 109 106 94 88 85 91 94 65 42 48 50 74 120 348 332 341 328 312 279 255 243 219 201 204 217 218 220 228 234 237 240 239 235 234 236 237 233 228
109 124 122 121 124 118 114 110 107 100 95 93 85 78 90 85 71 106 126 320 321 312 323 324 310 268 225 204 218 216 220 227 234 243 245 245 246 248 245 243 244 243 239
131 141 128 128 129 129 123 113 103 100 98 100 101 97 95 115 145 135 124 133 334 312 330 337 331 323 273 209 234 229 233 238 240 244 250 251 252 253 252 251 249 249 247
157 153 139 138 140 135 126 114 109 117 108 103 98 101 89 68 101 128 145 136 38 337 336 318 325 344 335 288 260 244 256 250 248 248 250 251 254 256 255 254 253 252 250
153 149 144 140 139 135 132 122 116 121 118 108 102 98 93 57 63 88 118 139 142 145 304 302 320 323 326 291 272 263 262 260 256 256 256 256 255 256 256 254 252 250 248
147 147 148 148 148 144 140 130 127 136 130 130 132 111 94 61 43 53 78 99 135 157 228 276 272 285 305 310 281 270 266 271 266 266 265 263 261 257 254 252 251 250 248
150 153 155 154 156 157 154 147 155 157 151 164 156 146 170 158 101 33 56 78 109 140 206 281 279 291 306 308 309 299 283 276 276 273 273 270 267 264 259 255 253 251 250
159 159 155 156 164 166 166 166 174 170 174 184 190 173 201 177 178 220 176 247 232 185 184 267 292 300 296 297 296 298 299 295 283 283 283 284 279 274 268 263 260 255 253
163 162 158 164 173 173 175 179 178 181 186 193 191 191 206 185 210 225 220 230 246 243 188 221 275 282 288 300 319 314 312 311 302 298 300 299 294 289 281 271 265 260 256
167 170 173 176 180 180 181 187 187 191 199 204 201 202 206 201 210 218 223 227 228 241 238 243 271 284 285 292 311 303 311 307 302 305 302 297 295 296 288 279 270 263 258
176 174 175 182 184 184 192 190 192 195 201 218 226 225 226 224 221 218 215 214 207 216 234 246 265 282 285 293 280 269 279 289 287 272 287 291 295 292 289 284 276 266 260
178 176 182 185 191 201 199 193 184 186 196 207 225 241 249 247 244 238 234 222 206 206 217 225 242 249 261 257 257 258 264 290 293 277 263 282 281 281 278 268 267 266 263
182 184 191 190 196 207 200 198 196 188 201 214 222 230 244 243 239 240 250 250 241 234 221 210 228 242 247 243 243 260 253 244 250 257 255 278 276 274 274 276 272 268 265
187 191 196 197 198 211 206 206 204 199 210 225 226 225 233 248 248 232 237 251 255 253 242 228 229 242 244 242 230 238 248 258 263 261 218 256 270 268 276 272 271 268 267
191 195 196 196 201 214 209 208 200 197 221 239 240 233 232 241 248 239 230 247 264 269 262 247 240 246 252 256 248 243 251 250 270 271 218 220 257 267 269 267 267 265 266
195 195 201 203 206 215 214 210 200 195 222 241 251 249 242 241 246 242 223 232 254 265 269 277 267 267 263 264 257 230 229 238 251 267 243 212 249 261 283 266 260 264 265